This is the latest recevied weather packets stored in our database for station/object N9DRW. If no packets are shown the sender has not sent any weather packets the latest 10 day(s).
| Time | Temp. | Humidity | Pressure | Rain* | Wind** | Luminosity | Snow |
|---|---|---|---|---|---|---|---|
| 1777831926 | 18.33° C | 42% | 0 hPa | 0 mm | - | - | - |
| 1777831326 | 17.78° C | 42% | 0 hPa | 0 mm | - | - | - |
| 1777830726 | 17.78° C | 39% | 0 hPa | 0 mm | - | - | - |
| 1777830126 | 17.78° C | 43% | 0 hPa | 0 mm | - | - | - |
| 1777829526 | 17.22° C | 43% | 0 hPa | 0 mm | - | - | - |
| 1777828926 | 17.22° C | 48% | 0 hPa | 0 mm | - | - | - |
| 1777828326 | 16.67° C | 49% | 0 hPa | 0 mm | - | - | - |
| 1777827726 | 16.11° C | 48% | 0 hPa | 0 mm | - | - | - |
| 1777827126 | 16.11° C | 48% | 0 hPa | 0 mm | - | - | - |
| 1777826525 | 16.11° C | 47% | 0 hPa | 0 mm | - | - | - |
| 1777825930 | 15.56° C | 48% | 0 hPa | 0 mm | - | - | - |
| 1777825326 | 15.56° C | 48% | 0 hPa | 0 mm | - | - | - |
| 1777824726 | 15.56° C | 50% | 0 hPa | 0 mm | - | - | - |
| 1777824126 | 15.56° C | 51% | 0 hPa | 0 mm | - | - | - |
| 1777823527 | 15° C | 55% | 0 hPa | 0 mm | - | - | - |
| 1777822926 | 14.44° C | 54% | 0 hPa | 0 mm | - | - | - |
| 1777822327 | 14.44° C | 56% | 0 hPa | 0 mm | - | - | - |
| 1777821726 | 14.44° C | 60% | 0 hPa | 0 mm | - | - | - |
| 1777821126 | 13.89° C | 61% | 0 hPa | 0 mm | - | - | - |
| 1777820526 | 13.89° C | 61% | 0 hPa | 0 mm | - | - | - |
| 1777819926 | 13.33° C | 61% | 0 hPa | 0 mm | - | - | - |
| 1777819326 | 12.22° C | 63% | 0 hPa | 0 mm | - | - | - |
| 1777818726 | 12.22° C | 67% | 0 hPa | 0 mm | - | - | - |
| 1777818126 | 11.11° C | 69% | 0 hPa | 0 mm | - | - | - |
| 1777817526 | 10.56° C | 73% | 0 hPa | 0 mm | - | - | - |
* Rain latest hour (hover to see other rain measurements)
** Current wind speed in m/s (hover to see current wind gust speed)